User: anonymous   Login
Location: Kapla
(46.2483°N, 15.0094°E)
Time: 15:07:44
(UTC+00:00)
Language:

Cosmos 1354 Rocket - Orbit

View from above orbital plane
View from above orbital plane
View from above satellite
View from above satellite

Ground track
Ground track

The orbit data is extracted from the following two-line orbital elements,

1 13149U 82037B   21131.53259667 -.00000041  00000-0 -51235-5 0  9997
2 13149  74.0393 162.4097 0012842  11.8173 348.3278 14.35396694 41654
Epoch (UTC): 11 May 2021 12:46:56
Eccentricity: 0.0012842
inclination: 74.0393°
perigee height: 764 km
apogee height: 783 km
right ascension of ascending node: 162.4097°
argument of perigee: 11.8173°
revolutions per day: 14.35396694
mean anomaly at epoch: 348.3278°
orbit number at epoch: 4165

The dashed part of the orbit path shows where the satellite is in the earth's shadow,  

DLR